EW9136 Weather Reports


Display with metric or nautical units.
time (UTC)temp
F
wind
direction
speed
MPH
gust
MPH
rain 1hr
in
rain 24hr
in
rain mn
in
humidity
%
barometer
mb
20260507050034 31 100 0.0 0.0 0.00 0.03 0.00 94 1016.2
20260507044525 30 99 0.0 0.0 0.00 0.03 0.00 94 1016.0
20260507043024 31 99 0.0 0.0 0.00 0.03 0.00 94 1016.0
20260507041524 30 99 0.0 3.0 0.00 0.03 0.00 94 1016.0
20260507040025 31 99 0.0 1.0 0.00 0.03 0.00 94 1016.0
20260507034531 31 99 0.0 2.0 0.00 0.03 0.00 94 1016.0
20260507033020 31 99 0.0 0.0 0.00 0.03 0.00 94 1016.1
20260507031518 31 99 0.0 0.0 0.00 0.03 0.00 94 1016.2
20260507030017 31 99 0.0 0.0 0.00 0.03 0.00 94 1016.2
20260507024522 31 99 0.0 0.0 0.00 0.03 0.00 94 1016.1
20260507023022 31 99 0.0 0.0 0.00 0.03 0.00 94 1016.2
20260507021513 32 99 0.0 2.0 0.00 0.03 0.00 93 1016.2
20260507020024 32 99 0.0 0.0 0.00 0.04 0.00 94 1016.1
20260507014510 32 99 0.0 0.0 0.00 0.04 0.00 93 1016.1
20260507013018 32 99 0.0 0.0 0.00 0.04 0.00 93 1016.2
20260507011509 32 99 0.0 0.0 0.00 0.04 0.00 93 1016.2
20260507010006 33 99 0.0 0.0 0.00 0.04 0.00 93 1016.2
20260507004504 33 99 0.0 0.0 0.00 0.04 0.00 93 1016.1
20260507003001 34 99 0.0 0.0 0.00 0.04 0.00 93 1016.2
20260507001501 34 99 0.0 0.0 0.00 0.04 0.00 93 1016.1
20260507000059 34 99 0.0 2.0 0.00 0.04 0.04 93 1016.2
20260506234559 34 99 0.0 2.0 0.00 0.04 0.04 93 1016.2
20260506233107 34 99 1.0 2.0 0.00 0.04 0.04 92 1016.4
20260506231605 33 99 0.0 2.0 0.00 0.04 0.04 92 1016.4
20260506224553 34 99 0.0 2.0 0.00 0.04 0.04 91 1016.3
20260506223051 34 99 0.0 2.0 0.00 0.04 0.04 90 1016.3
20260506221555 35 99 1.0 3.0 0.00 0.04 0.04 90 1016.2
20260506220048 36 119 0.0 4.0 0.00 0.04 0.04 90 1016.1
20260506214550 36 117 2.0 6.0 0.00 0.04 0.04 90 1016.1
20260506213047 36 115 2.0 6.0 0.00 0.04 0.04 90 1016.1
20260506211546 36 113 3.0 4.0 0.00 0.04 0.04 89 1016.1
20260506210045 37 112 2.0 4.0 0.00 0.04 0.04 88 1016.2
20260506204545 38 111 1.0 3.0 0.00 0.04 0.04 87 1016.1
20260506203044 40 111 0.0 4.0 0.00 0.04 0.04 86 1016.1
20260506201543 40 113 2.0 7.0 0.00 0.04 0.04 86 1015.9
20260506200045 41 113 2.0 7.0 0.00 0.04 0.04 86 1015.8
20260506194547 41 102 3.0 6.0 0.00 0.04 0.04 85 1015.9
20260506193042 42 76 2.0 4.0 0.00 0.04 0.04 84 1015.8
20260506191540 43 73 0.0 2.0 0.00 0.04 0.04 82 1015.9
20260506190039 44 73 0.0 2.0 0.00 0.04 0.04 81 1015.8
20260506184539 45 72 2.0 9.0 0.00 0.04 0.04 79 1015.7
20260506183039 46 57 5.0 10.0 0.00 0.04 0.04 78 1015.6
20260506181538 46 69 3.0 7.0 0.00 0.04 0.04 78 1015.6
20260506180041 46 56 3.0 6.0 0.00 0.04 0.04 78 1015.6
20260506174536 46 63 5.0 9.0 0.00 0.04 0.04 76 1015.5
20260506173043 46 61 5.0 10.0 0.00 0.04 0.04 75 1015.5
20260506171540 47 59 5.0 12.0 0.00 0.04 0.04 74 1015.6
20260506170035 48 48 9.0 14.0 0.00 0.04 0.04 68 1015.5
20260506164545 47 25 8.0 14.0 0.00 0.04 0.04 72 1015.5
20260506163035 48 54 9.0 13.0 0.00 0.04 0.04 71 1015.6
20260506161534 49 48 9.0 15.0 0.00 0.04 0.04 71 1015.5
20260506160033 49 23 9.0 15.0 0.00 0.04 0.04 71 1015.5
20260506154537 50 54 10.0 18.0 0.00 0.04 0.04 71 1015.5
20260506153035 50 62 11.0 17.0 0.00 0.04 0.04 69 1015.5
20260506151531 53 56 8.0 16.0 0.00 0.04 0.04 70 1015.5
20260506150130 52 44 8.0 15.0 0.00 0.04 0.04 70 1015.5
20260506144531 52 54 8.0 17.0 0.00 0.04 0.04 71 1015.5
20260506143033 50 56 7.0 15.0 0.00 0.04 0.04 70 1015.5
20260506141527 52 52 10.0 16.0 0.00 0.04 0.04 70 1015.5
20260506140027 51 52 7.0 15.0 0.00 0.04 0.04 70 1015.6
20260506134526 52 67 10.0 19.0 0.00 0.04 0.04 68 1015.7
20260506133025 52 50 10.0 18.0 0.00 0.04 0.04 70 1015.6
20260506131532 52 61 13.0 17.0 0.00 0.04 0.04 71 1015.6
20260506130024 50 65 9.0 17.0 0.00 0.04 0.04 71 1015.6
20260506124527 50 63 12.0 18.0 0.00 0.04 0.04 70 1015.6
20260506123026 50 46 12.0 18.0 0.00 0.04 0.04 70 1015.7
20260506121522 49 48 10.0 17.0 0.00 0.04 0.04 71 1015.7
20260506120034 50 32 8.0 16.0 0.00 0.04 0.04 71 1015.7
20260506114524 51 42 10.0 17.0 0.00 0.04 0.04 68 1015.7
20260506113020 50 56 13.0 19.0 0.00 0.04 0.04 67 1015.7
20260506111621 52 46 11.0 19.0 0.00 0.04 0.04 66 1015.8
20260506110021 51 49 13.0 20.0 0.00 0.04 0.04 63 1015.7
20260506104515 51 32 10.0 17.0 0.00 0.04 0.04 68 1015.8
20260506103025 49 52 12.0 20.0 0.00 0.04 0.04 69 1015.7
20260506101512 50 46 14.0 20.0 0.00 0.04 0.04 71 1015.6
20260506100008 47 38 12.0 18.0 0.00 0.04 0.04 76 1015.7
20260506094520 47 56 11.0 18.0 0.00 0.04 0.04 74 1015.7
20260506093041 47 21 9.0 19.0 0.00 0.04 0.04 76 1015.8
20260506091526 47 21 13.0 17.0 0.00 0.04 0.04 77 1015.7
20260506090024 47 20 11.0 17.0 0.00 0.04 0.04 78 1015.7
20260506084522 47 30 11.0 18.0 0.01 0.04 0.04 81 1015.7
20260506083018 46 36 10.0 19.0 0.01 0.04 0.04 83 1015.6
20260506081516 45 23 11.0 19.0 0.02 0.04 0.04 86 1015.6
20260506073012 43 325 6.0 14.0 0.02 0.03 0.03 88 1015.3
20260506071512 44 21 8.0 14.0 0.00 0.02 0.02 86 1015.2
20260506061506 43 22 6.0 14.0 0.00 0.02 0.02 89 1015.0
20260506050113 39 106 1.0 3.0 0.01 0.02 0.02 95 1014.9